Location: Armstrong
(40.9123°N, 82.0110°W)
Time: 08:55:32
(UTC+00:00)

Cosmos 1745 Rocket - Pass Details

Date: 29 October 2020
Orbit: 953 x 997 km, 83.0° (Epoch: 29 November)

Event Time Altitude Azimuth Distance (km) Brightness Sun altitude
Rises 23:22:33 0° 358° (N) 3,696 7.0 -11.0°
Reaches altitude 10° 23:25:11 10° 4° (N) 2,750 6.2 -11.5°
Maximum altitude 23:31:15 47° 78° (ENE) 1,286 4.2 -12.7°
Drops below altitude 10° 23:37:19 10° 151° (SSE) 2,754 6.1 -13.8°
Sets 23:39:57 0° 157° (SSE) 3,701 6.9 -14.3°
